Time,TemperatureF,DewpointF,PressureIn,WindDirection,WindDirectionDegrees,WindSpeedMPH,WindSpeedGustMPH,Humidity,HourlyPrecipIn,Conditions,Clouds,dailyrainin,SoftwareType,DateUTC
2013-04-26 00:03:00,35.0,28.0,-100.00,WNW,285,2.0,2.0,73,-99.99,,,-99.99,,2013-04-26 04:03:00,
2013-04-26 00:12:00,35.0,28.0,-100.00,SW,235,2.0,2.0,75,-99.99,,,-99.99,,2013-04-26 04:12:00,
2013-04-26 00:23:00,35.0,28.0,-100.00,SW,235,2.0,2.0,76,-99.99,,,-99.99,,2013-04-26 04:23:00,
2013-04-26 00:32:00,35.0,28.0,-100.00,WSW,255,2.0,2.0,77,-99.99,,,-99.99,,2013-04-26 04:32:00,
2013-04-26 00:43:00,35.0,28.0,-100.00,WSW,255,1.0,2.0,77,-99.99,,,-99.99,,2013-04-26 04:43:00,
2013-04-26 00:52:00,35.0,28.0,-100.00,West,265,2.0,2.0,77,-99.99,,,-99.99,,2013-04-26 04:52:00,
2013-04-26 01:02:00,34.0,28.0,-100.00,West,260,0.0,1.0,78,-99.99,,,-99.99,,2013-04-26 05:02:00,
2013-04-26 01:12:00,34.0,28.0,-100.00,West,265,0.0,1.0,79,-99.99,,,-99.99,,2013-04-26 05:12:00,
2013-04-26 01:22:00,33.0,28.0,-100.00,West,280,1.0,1.0,81,-99.99,,,-99.99,,2013-04-26 05:22:00,
2013-04-26 01:32:00,33.0,28.0,-100.00,West,280,1.0,1.0,82,-99.99,,,-99.99,,2013-04-26 05:32:00,
2013-04-26 01:42:00,33.0,29.0,-100.00,West,275,0.0,1.0,84,-99.99,,,-99.99,,2013-04-26 05:42:00,
2013-04-26 01:52:00,33.0,29.0,-100.00,West,275,0.0,1.0,84,-99.99,,,-99.99,,2013-04-26 05:52:00,
2013-04-26 02:02:00,33.0,29.0,-100.00,NW,310,0.0,0.0,86,-99.99,,,-99.99,,2013-04-26 06:02:00,
2013-04-26 02:11:00,33.0,29.0,-100.00,NW,310,0.0,0.0,86,-99.99,,,-99.99,,2013-04-26 06:11:00,
2013-04-26 02:21:00,33.0,29.0,-100.00,NW,310,0.0,0.0,88,-99.99,,,-99.99,,2013-04-26 06:21:00,
2013-04-26 02:32:00,32.0,29.0,-100.00,NW,310,0.0,0.0,88,-99.99,,,-99.99,,2013-04-26 06:32:00,
2013-04-26 02:42:00,32.0,29.0,-100.00,North,350,0.0,0.0,88,-99.99,,,-99.99,,2013-04-26 06:42:00,
2013-04-26 02:52:00,31.0,29.0,-100.00,North,350,0.0,1.0,89,-99.99,,,-99.99,,2013-04-26 06:52:00,
2013-04-26 03:01:00,31.0,28.0,-100.00,North,350,0.0,1.0,89,-99.99,,,-99.99,,2013-04-26 07:01:00,
2013-04-26 03:11:00,31.0,29.0,-100.00,North,350,0.0,0.0,90,-99.99,,,-99.99,,2013-04-26 07:11:00,
2013-04-26 03:22:00,31.0,29.0,-100.00,West,275,0.0,0.0,90,-99.99,,,-99.99,,2013-04-26 07:22:00,
2013-04-26 03:32:00,31.0,29.0,-100.00,West,275,0.0,0.0,90,-99.99,,,-99.99,,2013-04-26 07:32:00,
2013-04-26 03:42:00,31.0,29.0,-100.00,West,275,0.0,0.0,90,-99.99,,,-99.99,,2013-04-26 07:42:00,
2013-04-26 03:52:00,31.0,29.0,-100.00,West,275,0.0,0.0,90,-99.99,,,-99.99,,2013-04-26 07:52:00,
2013-04-26 04:03:00,31.0,29.0,-100.00,NW,305,0.0,1.0,92,-99.99,,,-99.99,,2013-04-26 08:03:00,
2013-04-26 04:11:00,30.0,29.0,-100.00,West,265,0.0,1.0,92,-99.99,,,-99.99,,2013-04-26 08:11:00,
2013-04-26 04:22:00,30.0,28.0,-100.00,SW,235,0.0,1.0,92,-99.99,,,-99.99,,2013-04-26 08:22:00,
2013-04-26 04:32:00,30.0,28.0,-100.00,SW,235,0.0,1.0,93,-99.99,,,-99.99,,2013-04-26 08:32:00,
2013-04-26 04:42:00,30.0,28.0,-100.00,West,275,1.0,1.0,93,-99.99,,,-99.99,,2013-04-26 08:42:00,
2013-04-26 04:52:00,30.0,28.0,-100.00,West,275,1.0,1.0,93,-99.99,,,-99.99,,2013-04-26 08:52:00,
2013-04-26 05:02:00,30.0,28.0,-100.00,West,275,1.0,1.0,93,-99.99,,,-99.99,,2013-04-26 09:02:00,
2013-04-26 05:11:00,30.0,28.0,-100.00,West,275,1.0,1.0,93,-99.99,,,-99.99,,2013-04-26 09:11:00,
2013-04-26 05:21:00,30.0,29.0,-100.00,WNW,295,1.0,1.0,94,-99.99,,,-99.99,,2013-04-26 09:21:00,
2013-04-26 05:33:00,30.0,29.0,-100.00,WNW,300,0.0,0.0,94,-99.99,,,-99.99,,2013-04-26 09:33:00,
2013-04-26 05:43:00,31.0,29.0,-100.00,NNE,20,0.0,1.0,94,-99.99,,,-99.99,,2013-04-26 09:43:00,
2013-04-26 05:53:00,31.0,29.0,-100.00,NNE,20,0.0,0.0,94,-99.99,,,-99.99,,2013-04-26 09:53:00,
2013-04-26 06:03:00,31.0,29.0,-100.00,NNE,20,0.0,0.0,94,-99.99,,,-99.99,,2013-04-26 10:03:00,
2013-04-26 06:10:00,31.0,30.0,-100.00,NE,50,1.0,2.0,94,-99.99,,,-99.99,,2013-04-26 10:10:00,
2013-04-26 06:12:00,31.0,30.0,-100.00,ENE,65,0.0,1.0,94,-99.99,,,-99.99,,2013-04-26 10:12:00,
2013-04-26 06:23:00,31.0,29.0,-100.00,ENE,65,1.0,1.0,94,-99.99,,,-99.99,,2013-04-26 10:23:00,
2013-04-26 06:33:00,31.0,30.0,-100.00,NE,50,1.0,2.0,94,-99.99,,,-99.99,,2013-04-26 10:33:00,
2013-04-26 06:42:00,31.0,30.0,-100.00,NE,50,1.0,2.0,94,-99.99,,,-99.99,,2013-04-26 10:42:00,
2013-04-26 06:52:00,31.0,30.0,-100.00,NE,50,1.0,2.0,94,-99.99,,,-99.99,,2013-04-26 10:52:00,
2013-04-26 07:02:00,31.0,30.0,-100.00,NE,50,1.0,2.0,94,-99.99,,,-99.99,,2013-04-26 11:02:00,
2013-04-26 07:32:00,31.0,29.0,-100.00,SE,130,1.0,1.0,94,-99.99,,,-99.99,,2013-04-26 11:32:00,
2013-04-26 07:42:00,32.0,30.0,-100.00,SE,125,2.0,2.0,94,-99.99,,,-99.99,,2013-04-26 11:42:00,
2013-04-26 07:52:00,33.0,32.0,-100.00,SSE,150,2.0,3.0,93,-99.99,,,-99.99,,2013-04-26 11:52:00,
2013-04-26 08:02:00,35.0,33.0,-100.00,SE,145,2.0,3.0,91,-99.99,,,-99.99,,2013-04-26 12:02:00,
2013-04-26 08:11:00,36.0,33.0,-100.00,ESE,120,2.0,3.0,89,-99.99,,,-99.99,,2013-04-26 12:11:00,
2013-04-26 08:21:00,38.0,34.0,-100.00,SE,145,2.0,3.0,86,-99.99,,,-99.99,,2013-04-26 12:21:00,
2013-04-26 08:32:00,39.0,33.0,-100.00,SSE,150,4.0,6.0,79,-99.99,,,-99.99,,2013-04-26 12:32:00,
2013-04-26 08:42:00,40.0,32.0,-100.00,SSE,155,5.0,7.0,71,-99.99,,,-99.99,,2013-04-26 12:42:00,
2013-04-26 08:52:00,41.0,31.0,-100.00,SSE,160,6.0,8.0,67,-99.99,,,-99.99,,2013-04-26 12:52:00,
2013-04-26 09:01:00,41.0,31.0,-100.00,South,175,7.0,10.0,66,-99.99,,,-99.99,,2013-04-26 13:01:00,
2013-04-26 09:11:00,42.0,31.0,-100.00,SSE,160,7.0,9.0,64,-99.99,,,-99.99,,2013-04-26 13:11:00,
2013-04-26 09:22:00,44.0,32.0,-100.00,SSE,165,7.0,10.0,63,-99.99,,,-99.99,,2013-04-26 13:22:00,
2013-04-26 09:32:00,44.0,31.0,-100.00,SSE,160,7.0,11.0,61,-99.99,,,-99.99,,2013-04-26 13:32:00,
2013-04-26 09:42:00,45.0,32.0,-100.00,South,175,6.0,11.0,61,-99.99,,,-99.99,,2013-04-26 13:42:00,
2013-04-26 09:52:00,46.0,33.0,-100.00,South,170,6.0,9.0,59,-99.99,,,-99.99,,2013-04-26 13:52:00,
2013-04-26 10:01:00,46.0,33.0,-100.00,SSE,155,7.0,11.0,58,-99.99,,,-99.99,,2013-04-26 14:01:00,
2013-04-26 10:11:00,46.0,32.0,-100.00,SSE,150,9.0,12.0,56,-99.99,,,-99.99,,2013-04-26 14:11:00,
2013-04-26 10:20:00,48.0,30.0,-100.00,SSE,160,11.0,15.0,50,-99.99,,,-99.99,,2013-04-26 14:20:00,
2013-04-26 10:21:00,48.0,32.0,-100.00,South,175,9.0,14.0,54,-99.99,,,-99.99,,2013-04-26 14:21:00,
2013-04-26 10:32:00,48.0,32.0,-100.00,South,180,7.0,13.0,52,-99.99,,,-99.99,,2013-04-26 14:32:00,
2013-04-26 10:42:00,48.0,30.0,-100.00,SSE,160,11.0,15.0,50,-99.99,,,-99.99,,2013-04-26 14:42:00,
2013-04-26 10:51:00,48.0,30.0,-100.00,SSE,160,11.0,15.0,50,-99.99,,,-99.99,,2013-04-26 14:51:00,
2013-04-26 11:01:00,48.0,30.0,-100.00,SSE,160,11.0,15.0,50,-99.99,,,-99.99,,2013-04-26 15:01:00,
2013-04-26 11:12:00,48.0,30.0,-100.00,SSE,160,11.0,15.0,50,-99.99,,,-99.99,,2013-04-26 15:12:00,
2013-04-26 11:43:00,51.0,31.0,-100.00,SSW,200,9.0,14.0,44,-99.99,,,-99.99,,2013-04-26 15:43:00,
2013-04-26 11:53:00,52.0,31.0,-100.00,SE,135,9.0,12.0,44,-99.99,,,-99.99,,2013-04-26 15:53:00,
2013-04-26 12:03:00,51.0,30.0,-100.00,SSE,165,10.0,15.0,44,-99.99,,,-99.99,,2013-04-26 16:03:00,
2013-04-26 12:13:00,52.0,31.0,-100.00,SSW,195,7.0,14.0,44,-99.99,,,-99.99,,2013-04-26 16:13:00,
2013-04-26 12:23:00,53.0,31.0,-100.00,South,175,10.0,16.0,43,-99.99,,,-99.99,,2013-04-26 16:23:00,
2013-04-26 12:33:00,53.0,30.0,-100.00,SSW,210,1.0,14.0,41,-99.99,,,-99.99,,2013-04-26 16:33:00,
2013-04-26 12:42:00,53.0,31.0,-100.00,SW,215,6.0,14.0,43,-99.99,,,-99.99,,2013-04-26 16:42:00,
2013-04-26 12:52:00,53.0,31.0,-100.00,SSW,205,7.0,15.0,41,-99.99,,,-99.99,,2013-04-26 16:52:00,
2013-04-26 13:02:00,55.0,31.0,-100.00,SSW,200,7.0,11.0,40,-99.99,,,-99.99,,2013-04-26 17:02:00,
2013-04-26 13:12:00,54.0,30.0,-100.00,South,170,10.0,14.0,40,-99.99,,,-99.99,,2013-04-26 17:12:00,
2013-04-26 13:22:00,55.0,31.0,-100.00,South,175,6.0,18.0,40,-99.99,,,-99.99,,2013-04-26 17:22:00,
2013-04-26 13:32:00,55.0,31.0,-100.00,SSE,160,9.0,14.0,40,-99.99,,,-99.99,,2013-04-26 17:32:00,
2013-04-26 13:42:00,55.0,31.0,-100.00,SSW,205,7.0,16.0,39,-99.99,,,-99.99,,2013-04-26 17:42:00,
2013-04-26 13:51:00,56.0,31.0,-100.00,South,180,12.0,17.0,38,-99.99,,,-99.99,,2013-04-26 17:51:00,
2013-04-26 14:02:00,56.0,31.0,-100.00,South,190,5.0,16.0,38,-99.99,,,-99.99,,2013-04-26 18:02:00,
2013-04-26 14:12:00,57.0,31.0,-100.00,South,180,5.0,14.0,37,-99.99,,,-99.99,,2013-04-26 18:12:00,
2013-04-26 14:22:00,58.0,32.0,-100.00,South,175,6.0,13.0,37,-99.99,,,-99.99,,2013-04-26 18:22:00,
2013-04-26 14:33:00,58.0,32.0,-100.00,SSW,200,9.0,16.0,37,-99.99,,,-99.99,,2013-04-26 18:33:00,
2013-04-26 14:42:00,56.0,31.0,-100.00,SSE,165,11.0,16.0,38,-99.99,,,-99.99,,2013-04-26 18:42:00,
2013-04-26 14:52:00,58.0,32.0,-100.00,SSW,195,10.0,16.0,37,-99.99,,,-99.99,,2013-04-26 18:52:00,
2013-04-26 15:01:00,57.0,32.0,-100.00,South,180,6.0,16.0,38,-99.99,,,-99.99,,2013-04-26 19:01:00,
2013-04-26 15:12:00,58.0,32.0,-100.00,SSE,160,11.0,15.0,37,-99.99,,,-99.99,,2013-04-26 19:12:00,
2013-04-26 15:22:00,58.0,32.0,-100.00,South,170,9.0,16.0,37,-99.99,,,-99.99,,2013-04-26 19:22:00,
2013-04-26 15:32:00,59.0,33.0,-100.00,SSE,160,9.0,14.0,36,-99.99,,,-99.99,,2013-04-26 19:32:00,
2013-04-26 15:42:00,60.0,33.0,-100.00,SSE,160,9.0,17.0,36,-99.99,,,-99.99,,2013-04-26 19:42:00,
2013-04-26 15:50:00,59.0,32.0,-100.00,South,185,10.0,15.0,35,-99.99,,,-99.99,,2013-04-26 19:50:00,
2013-04-26 15:52:00,59.0,32.0,-100.00,SW,220,8.0,17.0,35,-99.99,,,-99.99,,2013-04-26 19:52:00,
2013-04-26 16:02:00,60.0,33.0,-100.00,South,180,5.0,14.0,36,-99.99,,,-99.99,,2013-04-26 20:02:00,
2013-04-26 16:11:00,59.0,32.0,-100.00,South,185,10.0,15.0,35,-99.99,,,-99.99,,2013-04-26 20:11:00,
2013-04-26 16:21:00,59.0,32.0,-100.00,South,185,10.0,15.0,35,-99.99,,,-99.99,,2013-04-26 20:21:00,
2013-04-26 16:32:00,59.0,32.0,-100.00,South,185,10.0,15.0,35,-99.99,,,-99.99,,2013-04-26 20:32:00,
2013-04-26 16:42:00,59.0,32.0,-100.00,South,185,10.0,15.0,35,-99.99,,,-99.99,,2013-04-26 20:42:00,
2013-04-26 17:02:00,59.0,32.0,-100.00,SSE,165,9.0,19.0,34,-99.99,,,-99.99,,2013-04-26 21:02:00,
2013-04-26 17:11:00,60.0,32.0,-100.00,South,185,10.0,17.0,35,-99.99,,,-99.99,,2013-04-26 21:11:00,
2013-04-26 17:22:00,60.0,32.0,-100.00,South,185,10.0,17.0,35,-99.99,,,-99.99,,2013-04-26 21:22:00,
2013-04-26 17:33:00,60.0,33.0,-100.00,South,190,12.0,16.0,35,-99.99,,,-99.99,,2013-04-26 21:33:00,
2013-04-26 17:42:00,59.0,31.0,-100.00,SSE,160,12.0,16.0,35,-99.99,,,-99.99,,2013-04-26 21:42:00,
2013-04-26 17:52:00,59.0,32.0,-100.00,South,175,11.0,16.0,36,-99.99,,,-99.99,,2013-04-26 21:52:00,
2013-04-26 18:03:00,59.0,33.0,-100.00,South,185,10.0,16.0,36,-99.99,,,-99.99,,2013-04-26 22:03:00,
2013-04-26 18:12:00,59.0,33.0,-100.00,SSW,210,7.0,16.0,36,-99.99,,,-99.99,,2013-04-26 22:12:00,
2013-04-26 18:23:00,59.0,32.0,-100.00,South,190,7.0,14.0,36,-99.99,,,-99.99,,2013-04-26 22:23:00,
2013-04-26 18:33:00,59.0,32.0,-100.00,South,185,9.0,17.0,35,-99.99,,,-99.99,,2013-04-26 22:33:00,
2013-04-26 18:42:00,59.0,33.0,-100.00,South,175,10.0,14.0,36,-99.99,,,-99.99,,2013-04-26 22:42:00,
2013-04-26 18:52:00,60.0,33.0,-100.00,SSW,200,8.0,14.0,36,-99.99,,,-99.99,,2013-04-26 22:52:00,
2013-04-26 19:02:00,60.0,32.0,-100.00,SSW,195,9.0,17.0,35,-99.99,,,-99.99,,2013-04-26 23:02:00,
2013-04-26 19:12:00,59.0,33.0,-100.00,South,190,8.0,15.0,36,-99.99,,,-99.99,,2013-04-26 23:12:00,
2013-04-26 19:21:00,59.0,32.0,-100.00,South,190,10.0,15.0,36,-99.99,,,-99.99,,2013-04-26 23:21:00,
2013-04-26 19:32:00,59.0,32.0,-100.00,SSW,195,7.0,14.0,36,-99.99,,,-99.99,,2013-04-26 23:32:00,
2013-04-26 19:42:00,59.0,33.0,-100.00,SSW,200,6.0,12.0,37,-99.99,,,-99.99,,2013-04-26 23:42:00,
2013-04-26 19:52:00,58.0,33.0,-100.00,South,180,7.0,12.0,38,-99.99,,,-99.99,,2013-04-26 23:52:00,
2013-04-26 20:01:00,57.0,33.0,-100.00,South,175,7.0,12.0,38,-99.99,,,-99.99,,2013-04-27 00:01:00,
2013-04-26 20:11:00,57.0,33.0,-100.00,South,180,7.0,11.0,39,-99.99,,,-99.99,,2013-04-27 00:11:00,
2013-04-26 20:21:00,57.0,33.0,-100.00,SSE,165,6.0,10.0,40,-99.99,,,-99.99,,2013-04-27 00:21:00,
2013-04-26 20:32:00,56.0,33.0,-100.00,South,175,7.0,9.0,41,-99.99,,,-99.99,,2013-04-27 00:32:00,
2013-04-26 20:42:00,55.0,33.0,-100.00,South,185,6.0,9.0,42,-99.99,,,-99.99,,2013-04-27 00:42:00,
2013-04-26 20:51:00,54.0,33.0,-100.00,South,175,6.0,8.0,44,-99.99,,,-99.99,,2013-04-27 00:51:00,
2013-04-26 21:01:00,53.0,32.0,-100.00,South,180,4.0,7.0,45,-99.99,,,-99.99,,2013-04-27 01:01:00,
2013-04-26 21:12:00,53.0,33.0,-100.00,South,170,4.0,6.0,46,-99.99,,,-99.99,,2013-04-27 01:12:00,
2013-04-26 21:21:00,53.0,33.0,-100.00,South,170,4.0,6.0,46,-99.99,,,-99.99,,2013-04-27 01:21:00,
2013-04-26 21:30:00,50.0,34.0,-100.00,SSE,165,3.0,4.0,53,-99.99,,,-99.99,,2013-04-27 01:30:00,
2013-04-26 21:32:00,51.0,33.0,-100.00,SSE,165,4.0,6.0,48,-99.99,,,-99.99,,2013-04-27 01:32:00,
2013-04-26 21:42:00,51.0,33.0,-100.00,SSE,160,3.0,4.0,50,-99.99,,,-99.99,,2013-04-27 01:42:00,
2013-04-26 21:52:00,50.0,34.0,-100.00,SSE,165,3.0,4.0,53,-99.99,,,-99.99,,2013-04-27 01:52:00,
2013-04-26 22:02:00,50.0,34.0,-100.00,SSE,165,3.0,4.0,53,-99.99,,,-99.99,,2013-04-27 02:02:00,
2013-04-26 22:11:00,50.0,34.0,-100.00,SSE,165,3.0,4.0,53,-99.99,,,-99.99,,2013-04-27 02:11:00,
2013-04-26 22:22:00,50.0,34.0,-100.00,SSE,165,3.0,4.0,53,-99.99,,,-99.99,,2013-04-27 02:22:00,
2013-04-26 22:42:00,48.0,35.0,-100.00,South,170,3.0,4.0,58,-99.99,,,-99.99,,2013-04-27 02:42:00,
2013-04-26 22:52:00,48.0,35.0,-100.00,SSE,165,4.0,4.0,58,-99.99,,,-99.99,,2013-04-27 02:52:00,
2013-04-26 23:02:00,48.0,35.0,-100.00,SSE,160,4.0,6.0,59,-99.99,,,-99.99,,2013-04-27 03:02:00,
2013-04-26 23:11:00,48.0,35.0,-100.00,SSE,165,4.0,6.0,60,-99.99,,,-99.99,,2013-04-27 03:11:00,
2013-04-26 23:22:00,48.0,35.0,-100.00,SSE,165,4.0,6.0,60,-99.99,,,-99.99,,2013-04-27 03:22:00,
2013-04-26 23:33:00,47.0,35.0,-100.00,SSE,165,4.0,6.0,60,-99.99,,,-99.99,,2013-04-27 03:33:00,
2013-04-26 23:43:00,47.0,34.0,-100.00,South,180,2.0,4.0,61,-99.99,,,-99.99,,2013-04-27 03:43:00,
2013-04-26 23:53:00,46.0,34.0,-100.00,SSE,155,2.0,3.0,63,-99.99,,,-99.99,,2013-04-27 03:53:00,